D1965 Weather Reports


Display with metric or nautical units.
time (UTC)temp
F
wind
direction
speed
MPH
gust
MPH
rain 1hr
in
rain 24hr
in
rain mn
in
humidity
%
barometer
mb
20260503005504 49 0 0.0 0.0 0.00 0.00 0.00 93 1010.5
20260503005005 49 0 0.0 0.0 0.00 0.00 0.00 93 1010.5
20260503004504 49 0 0.0 0.0 0.00 0.00 0.00 93 1010.5
20260503004005 49 0 0.0 0.0 0.00 0.00 0.00 93 1010.6
20260503003504 48 0 0.0 0.0 0.00 0.00 0.00 93 1010.6
20260503002504 48 0 0.0 0.0 0.00 0.00 0.00 93 1010.7
20260503001503 48 0 0.0 0.0 0.00 0.00 0.00 93 1010.7
20260503001004 48 0 0.0 0.0 0.00 0.00 0.00 93 1010.7
20260503000005 48 0 0.0 0.0 0.00 0.00 0.00 92 1010.7
20260502235503 48 0 0.0 0.0 0.00 0.00 0.00 92 1010.7
20260502235004 48 0 0.0 0.0 0.00 0.00 0.00 91 1010.7
20260502234506 48 0 0.0 0.0 0.00 0.00 0.00 92 1010.7
20260502233506 48 0 0.0 0.0 0.00 0.00 0.00 91 1010.8
20260502233007 48 0 0.0 0.0 0.00 0.00 0.00 91 1010.7
20260502232505 48 0 0.0 0.0 0.00 0.00 0.00 92 1010.8
20260502232007 48 0 0.0 0.0 0.00 0.00 0.00 91 1010.7
20260502231506 48 0 0.0 0.0 0.00 0.00 0.00 91 1010.7
20260502231007 48 0 0.0 0.0 0.00 0.00 0.00 91 1010.7
20260502230506 48 0 0.0 0.0 0.00 0.00 0.00 90 1010.8
20260502230006 48 0 0.0 0.0 0.00 0.00 0.00 90 1010.7
20260502225506 48 0 0.0 0.0 0.00 0.00 0.00 90 1010.7
20260502224506 49 0 0.0 0.0 0.00 0.00 0.00 89 1010.7
20260502224007 49 0 0.0 0.0 0.00 0.00 0.00 89 1010.7
20260502223506 49 0 0.0 0.0 0.00 0.00 0.00 89 1010.7
20260502223007 49 0 0.0 0.0 0.00 0.00 0.00 89 1010.8
20260502222505 49 0 0.0 0.0 0.00 0.00 0.00 89 1010.9
20260502222007 49 0 0.0 0.0 0.00 0.00 0.00 89 1010.8
20260502221506 49 0 0.0 0.0 0.00 0.00 0.00 89 1010.8
20260502221007 49 0 0.0 0.0 0.00 0.00 0.00 89 1010.8
20260502220505 49 0 0.0 0.0 0.00 0.00 0.00 88 1010.8
20260502220006 49 0 0.0 0.0 0.00 0.00 0.00 88 1010.9
20260502215505 50 0 0.0 0.0 0.00 0.00 0.00 88 1010.8
20260502214506 50 0 0.0 0.0 0.00 0.00 0.00 88 1010.8
20260502213506 50 0 0.0 0.0 0.00 0.00 0.00 87 1010.9
20260502212506 50 0 0.0 0.0 0.00 0.00 0.00 87 1010.9
20260502212006 50 0 0.0 0.0 0.00 0.00 0.00 87 1010.9
20260502211505 50 0 0.0 0.0 0.00 0.00 0.00 87 1010.9
20260502210506 51 107 0.0 3.0 0.00 0.00 0.00 87 1011.0
20260502210006 51 105 1.0 3.0 0.00 0.00 0.00 87 1010.9
20260502205505 51 110 2.0 4.0 0.00 0.00 0.00 87 1011.0
20260502205006 51 111 1.0 4.0 0.00 0.00 0.00 87 1010.9
20260502204505 51 107 1.0 6.0 0.00 0.00 0.00 88 1010.8
20260502204006 51 110 1.0 6.0 0.00 0.00 0.00 88 1010.9
20260502203505 51 126 1.0 4.0 0.00 0.00 0.00 88 1011.0
20260502202505 51 125 1.0 5.0 0.00 0.00 0.00 88 1010.8
20260502202006 51 127 1.0 5.0 0.00 0.00 0.00 88 1011.0
20260502200506 52 130 2.0 5.0 0.00 0.00 0.00 87 1010.8
20260502200006 52 125 1.0 3.0 0.00 0.00 0.00 87 1010.8
20260502195505 52 136 0.0 2.0 0.00 0.00 0.00 87 1010.7
20260502195007 52 139 0.0 4.0 0.00 0.00 0.00 87 1010.8
20260502194506 52 139 1.0 4.0 0.00 0.00 0.00 87 1010.8
20260502194007 52 131 1.0 4.0 0.00 0.00 0.00 87 1010.8
20260502193506 53 129 2.0 5.0 0.00 0.00 0.00 86 1010.8
20260502193006 53 121 2.0 6.0 0.00 0.00 0.00 87 1010.8
20260502192505 53 113 1.0 6.0 0.00 0.00 0.00 87 1010.8
20260502192007 53 122 1.0 4.0 0.00 0.00 0.00 87 1010.8
20260502191505 53 133 1.0 4.0 0.00 0.00 0.00 87 1010.8
20260502191006 53 136 1.0 5.0 0.00 0.00 0.00 87 1010.8
20260502190006 53 144 1.0 4.0 0.00 0.00 0.00 87 1010.9
20260502185006 53 121 0.0 3.0 0.00 0.00 0.00 87 1010.9
20260502184007 53 147 1.0 3.0 0.00 0.00 0.00 87 1011.0
20260502183505 53 160 1.0 6.0 0.00 0.00 0.00 87 1010.9
20260502182505 53 160 1.0 5.0 0.00 0.00 0.00 85 1010.9
20260502182006 53 146 1.0 5.0 0.00 0.00 0.00 84 1010.9
20260502181505 53 166 1.0 4.0 0.00 0.00 0.00 84 1010.9
20260502181006 53 177 1.0 5.0 0.00 0.00 0.00 84 1010.9
20260502180505 53 166 2.0 7.0 0.00 0.00 0.00 84 1010.9
20260502170505 55 123 3.0 9.0 0.00 0.00 0.00 79 1011.1
20260502164007 57 150 3.0 8.0 0.00 0.00 0.00 78 1011.1
20260502163005 56 117 5.0 10.0 0.00 0.00 0.00 78 1011.1
20260502162005 57 124 4.0 10.0 0.00 0.00 0.00 77 1011.2
20260502161505 57 115 4.0 10.0 0.00 0.00 0.00 75 1011.1
20260502161006 58 124 4.0 11.0 0.00 0.00 0.00 75 1011.1
20260502160505 58 146 4.0 11.0 0.00 0.00 0.00 73 1011.0
20260502152006 57 119 4.0 9.0 0.00 0.00 0.00 78 1011.3
20260502151505 57 126 4.0 10.0 0.00 0.00 0.00 77 1011.3
20260502151006 57 142 4.0 10.0 0.00 0.00 0.00 78 1011.4
20260502150505 57 151 4.0 8.0 0.00 0.00 0.00 76 1011.4
20260502130505 57 124 4.0 12.0 0.00 0.00 0.00 81 1012.1
20260502123505 57 147 4.0 10.0 0.00 0.00 0.00 80 1012.3
20260502123005 57 138 4.0 12.0 0.00 0.00 0.00 81 1012.4
20260502122006 57 122 4.0 12.0 0.00 0.00 0.00 80 1012.4
20260502121505 58 143 3.0 9.0 0.00 0.00 0.00 81 1012.5
20260502121005 58 144 3.0 10.0 0.00 0.00 0.00 81 1012.5
20260502120504 58 142 4.0 10.0 0.00 0.00 0.00 83 1012.6
20260502115505 56 159 3.0 7.0 0.00 0.00 0.00 84 1012.9
20260502115007 56 158 3.0 7.0 0.00 0.00 0.00 84 1012.8
20260502114505 56 160 3.0 9.0 0.00 0.00 0.00 84 1012.9
20260502114006 56 159 4.0 9.0 0.00 0.00 0.00 84 1012.9
20260502113505 56 153 3.0 8.0 0.00 0.00 0.00 84 1012.9
20260502113006 56 147 3.0 9.0 0.00 0.00 0.00 85 1013.0
20260502112505 56 149 4.0 9.0 0.00 0.00 0.00 85 1013.0
20260502111505 56 137 3.0 9.0 0.00 0.00 0.00 86 1012.9
20260502111005 56 151 4.0 9.0 0.00 0.00 0.00 86 1012.9
20260502110505 56 149 4.0 10.0 0.00 0.00 0.00 86 1012.9
20260502110006 56 141 4.0 10.0 0.00 0.00 0.00 86 1013.0
20260502105504 55 146 3.0 10.0 0.00 0.00 0.00 87 1013.0
20260502104504 54 137 3.0 9.0 0.00 0.00 0.00 90 1013.1
20260502104006 54 131 3.0 9.0 0.00 0.00 0.00 90 1013.1
20260502103504 53 142 3.0 9.0 0.00 0.00 0.00 90 1013.2
20260502102504 53 141 4.0 9.0 0.00 0.00 0.00 90 1013.2
20260502102005 53 138 3.0 9.0 0.00 0.00 0.00 90 1013.4
20260502101006 53 149 3.0 7.0 0.00 0.00 0.00 91 1013.4
20260502100504 53 146 2.0 7.0 0.00 0.00 0.00 90 1013.5
20260502091505 52 149 3.0 7.0 0.00 0.00 0.00 91 1013.8
20260502091005 52 146 3.0 8.0 0.00 0.00 0.00 91 1013.7
20260502090505 52 143 3.0 8.0 0.00 0.00 0.00 91 1013.8
20260502071504 51 143 3.0 8.0 0.00 0.00 0.00 90 1013.7
20260502071005 51 148 2.0 8.0 0.00 0.00 0.00 90 1013.8
20260502070505 51 148 2.0 6.0 0.00 0.00 0.00 90 1013.8
20260502070006 51 134 2.0 6.0 0.00 0.00 0.00 91 1013.7
20260502065504 51 122 3.0 8.0 0.00 0.00 0.00 91 1013.6
20260502065005 51 130 3.0 8.0 0.00 0.00 0.00 90 1013.7
20260502064505 51 131 2.0 7.0 0.00 0.00 0.00 91 1013.6
20260502064005 51 123 2.0 6.0 0.00 0.00 0.00 90 1013.5
20260502063505 51 126 2.0 8.0 0.00 0.00 0.00 90 1013.6
20260502063006 51 127 2.0 8.0 0.00 0.00 0.00 90 1013.7
20260502062504 51 124 2.0 8.0 0.00 0.00 0.00 89 1013.5
20260502062005 51 141 2.0 6.0 0.00 0.00 0.00 89 1013.7
20260502061505 51 166 2.0 6.0 0.00 0.00 0.00 89 1013.7
20260502060505 51 168 2.0 5.0 0.00 0.00 0.00 90 1013.7
20260502060005 51 149 2.0 6.0 0.00 0.00 0.00 90 1013.8
20260502055504 51 137 2.0 6.0 0.00 0.00 0.00 90 1013.9
20260502054504 51 128 2.0 8.0 0.00 0.00 0.00 90 1013.8
20260502054005 51 144 1.0 5.0 0.00 0.00 0.00 90 1013.9
20260502053504 51 148 1.0 4.0 0.00 0.00 0.00 90 1013.8
20260502053005 51 142 1.0 5.0 0.00 0.00 0.00 91 1013.8
20260502052504 51 133 1.0 5.0 0.00 0.00 0.00 91 1014.0
20260502052007 51 134 1.0 5.0 0.00 0.00 0.00 91 1013.9
20260502051504 51 133 2.0 5.0 0.00 0.00 0.00 91 1013.9
20260502051005 51 130 2.0 7.0 0.00 0.00 0.00 90 1014.0
20260502050504 50 128 2.0 7.0 0.00 0.00 0.00 90 1013.9
20260502050005 50 126 2.0 7.0 0.00 0.00 0.00 90 1014.0
20260502045504 50 128 2.0 7.0 0.00 0.00 0.00 91 1014.1
20260502045005 50 129 2.0 7.0 0.00 0.00 0.00 91 1014.2
20260502044505 50 129 3.0 7.0 0.00 0.00 0.00 90 1014.1
20260502044005 50 125 2.0 7.0 0.00 0.00 0.00 90 1014.1
20260502043504 50 128 2.0 6.0 0.00 0.00 0.00 90 1014.1
20260502042504 50 129 2.0 5.0 0.00 0.00 0.00 90 1014.1
20260502042006 50 132 2.0 7.0 0.00 0.00 0.00 90 1014.3
20260502041505 50 137 2.0 7.0 0.00 0.00 0.00 90 1014.3
20260502041005 50 134 3.0 7.0 0.00 0.00 0.00 90 1014.2
20260502040505 50 133 3.0 7.0 0.00 0.00 0.00 90 1014.4
20260502040006 50 133 2.0 7.0 0.00 0.00 0.00 90 1014.5
20260502035006 50 131 2.0 7.0 0.00 0.00 0.00 90 1014.5
20260502034504 50 128 2.0 7.0 0.00 0.00 0.00 90 1014.5
20260502034005 50 142 2.0 5.0 0.00 0.00 0.00 90 1014.6
20260502033504 50 154 1.0 5.0 0.00 0.00 0.00 90 1014.6
20260502033006 50 154 1.0 5.0 0.00 0.00 0.00 90 1014.8
20260502032504 50 147 1.0 5.0 0.00 0.00 0.00 90 1014.7
20260502032004 50 136 1.0 5.0 0.00 0.00 0.00 90 1014.8
20260502031504 50 133 1.0 5.0 0.00 0.00 0.00 89 1014.7
20260502031005 50 134 1.0 4.0 0.00 0.00 0.00 89 1014.9
20260502030504 50 136 1.0 7.0 0.00 0.00 0.00 89 1014.9
20260502030007 50 140 1.0 7.0 0.00 0.00 0.00 89 1014.9
20260502025504 50 132 1.0 3.0 0.00 0.00 0.00 88 1014.8
20260502024504 50 142 1.0 6.0 0.00 0.00 0.00 88 1015.0
20260502024005 50 152 2.0 6.0 0.00 0.00 0.00 88 1015.0
20260502023005 50 136 2.0 6.0 0.00 0.00 0.00 88 1015.0
20260502022505 50 135 2.0 6.0 0.00 0.00 0.00 88 1014.9
20260502022006 50 156 1.0 5.0 0.00 0.00 0.00 88 1015.1
20260502021504 50 172 0.0 5.0 0.00 0.00 0.00 88 1015.3
20260502021006 50 154 0.0 3.0 0.00 0.00 0.00 88 1015.3
20260502020504 50 157 1.0 5.0 0.00 0.00 0.00 89 1015.3
20260502020005 50 148 1.0 5.0 0.00 0.00 0.00 89 1015.3
20260502015504 50 154 1.0 5.0 0.00 0.00 0.00 89 1015.4
20260502015005 50 163 1.0 5.0 0.00 0.00 0.00 89 1015.5
20260502014504 50 161 1.0 5.0 0.00 0.00 0.00 89 1015.5
20260502014007 50 155 2.0 5.0 0.00 0.00 0.00 89 1015.7
20260502013504 51 155 2.0 5.0 0.00 0.00 0.00 89 1015.7
20260502012504 51 156 2.0 5.0 0.00 0.00 0.00 89 1015.7
20260502012005 51 149 1.0 5.0 0.00 0.00 0.00 89 1015.8
20260502011504 51 152 1.0 5.0 0.00 0.00 0.00 89 1015.9
20260502011006 51 152 1.0 5.0 0.00 0.00 0.00 89 1015.9
20260502010504 51 162 1.0 4.0 0.00 0.00 0.00 89 1015.9
20260502010006 51 167 2.0 4.0 0.00 0.00 0.00 89 1016.0